Tracking 35280 objects as of 7-Sep-2026
HD Live streaming from Space Station
objects crossing your sky now

STARLINK-5707

Track STARLINK-5707 now!
10-day predictions
STARLINK-5707 is classified as:


NORAD ID: 56879
Int'l Code: 2023-083D
Launch date: June 12, 2023
Source: United States (US)
Launch site: AIR FORCE EASTERN TEST RANGE (AFETR)
Your satellite tracking list
Your tracking list is empty




NASA's NSSDC Master Catalog

Two Line Element Set (TLE):
1 56879U 23083D   26250.05408093 -.00000005  00000-0  93426-5 0  9990
2 56879  43.0017 141.2952 0001058 243.1499 116.9245 15.27576139179362
Source of the keplerian elements: AFSPC